Wild Rice, North Dakota
Current Conditions -  °F | °C
As of 2:34 AM on Tuesday 21 Oct 2014 (Local Time) from KJKJ Reporting Station
Clear Clear  
Wind Chill: 40°   Ceiling: Unl
Heat Index: 45°   Visibility: 10mi
Dew Point: 43°   Wind: 8mph
Humidity: 93%   Direction: 130°SE
Pressure: 30.07"   Gusts: NA
Location:  46.7039°N, 96.8572°W
Report Text: KJKJ 210734Z AUTO 13007KT 10SM CLR 07/06 A3007 RMK AO2
Loading
Personal Weather Stations






























Interactive Weather Map New forecast layout! Learn more

10-Day Weather Forecast

Advertisements
Track Severe Weather on mobile